Wind_Speed
28 27 28 29 30 29 27 26 27 27 25 24 23 23 22 22 22 21 19 18 19 19 18 17 17 17 18 17 18 19 20 21 21 20 21 20 20 20 19 19 19 19 20 20 20 19 19 18 18 18 19 20 20 21 20 21 21 21 21 21 21 20 20 19 17 17 17 17 17 16 15 16 16 16 16 16 16 16 16 16 17 17 18 18 19
28 28 28 29 30 29 28 28 27 27 27 25 24 23 22 22 22 21 19 18 19 20 19 19 19 20 20 20 20 20 20 21 21 21 22 21 21 21 20 19 20 20 20 20 20 20 20 20 19 19 20 20 20 21 20 20 21 21 21 21 21 21 21 20 19 19 18 18 17 17 16 16 17 17 17 16 16 16 17 17 18 19 20 20 20
27 27 27 28 28 28 28 28 27 27 27 27 25 23 22 22 22 21 20 21 21 21 20 20 21 21 22 22 21 21 20 21 21 21 21 20 20 20 20 19 19 20 20 20 20 21 21 22 21 21 21 20 20 20 20 21 22 22 22 22 21 21 21 20 20 20 19 19 18 18 17 17 17 17 17 17 17 17 18 19 19 20 20 21 21
28 27 27 27 28 28 27 27 27 26 26 27 26 24 23 23 22 21 21 21 21 21 21 21 21 21 22 22 21 21 21 21 21 20 19 19 19 19 19 19 19 19 20 21 22 22 23 23 23 23 22 21 21 20 20 21 22 22 22 22 22 22 22 21 21 21 20 20 20 19 19 18 18 18 18 18 19 19 20 20 20 21 21 21 21
28 28 27 27 29 29 27 26 25 23 24 25 25 25 24 24 23 21 21 20 20 21 21 21 21 21 22 22 21 21 21 21 21 20 19 19 19 19 19 18 19 20 21 22 23 24 25 26 26 25 24 23 22 21 21 21 22 23 23 23 23 23 23 22 22 22 22 21 21 21 21 20 19 19 20 20 21 21 21 21 21 21 22 22 22
29 28 26 25 25 26 25 24 22 21 22 24 25 25 25 24 24 23 22 21 22 22 22 23 22 22 23 23 22 21 21 21 21 20 19 19 19 18 18 18 20 21 22 23 23 24 26 27 27 27 25 24 22 21 21 22 22 23 24 24 24 24 23 23 23 24 23 23 23 23 23 23 22 22 22 22 23 23 23 23 23 23 23 23 23
30 30 27 24 22 24 25 25 23 23 23 24 25 26 26 25 25 25 23 23 24 25 25 25 25 24 24 24 23 22 22 22 21 20 19 19 19 19 18 19 21 22 23 23 23 23 24 25 26 26 25 24 23 22 22 22 23 24 24 24 25 24 24 24 25 25 25 25 25 25 25 25 25 25 25 25 26 26 26 25 25 25 25 25 26
30 31 29 27 25 25 27 27 26 25 25 25 25 25 26 26 27 26 25 25 25 26 26 26 26 26 26 25 24 23 22 22 21 20 20 20 20 20 19 21 22 23 23 24 23 23 23 23 24 24 25 25 25 24 23 23 23 23 24 25 25 25 26 26 26 26 26 26 27 27 27 28 27 27 27 27 27 27 28 27 27 27 28 28 28
30 31 31 31 29 29 29 28 28 28 27 26 25 25 25 26 26 26 26 26 27 27 27 26 27 27 27 27 26 25 24 22 22 22 22 21 21 20 20 22 23 23 24 24 23 22 22 23 24 26 27 28 27 27 26 25 24 23 24 26 26 25 26 25 26 27 26 26 28 28 29 29 29 29 29 29 29 29 29 29 29 30 31 31 31
31 31 31 31 31 32 31 29 28 28 27 26 25 25 26 26 26 25 24 25 26 27 27 27 27 27 28 28 27 27 26 25 24 23 23 23 22 22 22 22 23 24 25 24 24 23 24 25 27 28 30 30 30 29 28 27 26 25 26 27 27 27 27 26 27 27 27 27 28 27 29 30 30 30 30 29 30 30 31 31 32 32 34 34 34
30 30 29 29 32 32 31 29 27 26 25 25 24 24 26 27 27 27 26 26 26 26 27 27 27 26 26 27 27 27 27 27 25 24 24 24 24 24 24 24 25 25 26 26 25 25 26 27 28 30 31 32 32 31 29 28 28 27 27 28 29 29 29 29 29 29 29 30 29 27 29 32 31 31 31 31 31 32 32 33 34 35 37 37 38
27 27 27 28 29 30 30 29 27 24 23 23 22 22 24 26 27 28 28 28 27 27 27 27 27 26 25 26 27 28 28 28 28 26 25 25 24 25 26 26 26 26 27 27 27 27 27 28 29 30 31 32 32 31 30 30 29 29 29 30 30 31 31 31 32 32 32 33 32 31 32 33 32 33 33 33 34 34 35 36 37 38 40 41 42
21 24 26 26 27 28 28 27 25 24 23 21 20 20 22 24 26 29 29 29 29 29 27 27 27 27 26 26 27 27 29 30 30 29 28 27 24 24 26 26 26 27 27 28 28 28 28 28 28 29 30 32 33 32 32 31 31 31 31 31 32 33 34 34 34 34 34 34 34 34 34 34 34 35 35 35 36 37 38 39 39 41 42 43 45
15 18 21 23 25 26 27 25 24 23 21 19 19 21 23 23 22 23 25 27 29 31 30 29 29 28 28 29 28 29 30 31 32 32 32 29 25 25 26 26 26 27 27 28 28 29 29 29 29 29 29 31 32 32 32 32 32 32 33 34 35 36 36 36 35 35 35 35 35 36 36 37 36 37 37 38 39 40 41 41 42 44 45 46 47
13 14 17 19 21 23 24 22 22 22 20 19 22 23 24 23 19 18 20 23 25 27 28 27 25 25 26 27 27 28 29 30 32 33 32 28 25 25 25 26 26 27 27 26 26 29 31 31 31 31 30 31 31 32 34 34 33 33 34 36 37 38 37 36 36 36 37 37 37 37 38 39 39 40 41 41 42 44 44 44 46 47 48 48 51
14 14 16 17 18 20 21 20 20 21 21 22 23 23 22 22 21 19 20 21 21 21 21 20 20 20 21 22 23 24 24 25 27 27 26 24 24 25 25 26 27 28 28 27 26 29 32 32 32 32 32 32 33 34 37 37 35 35 36 37 38 38 37 37 37 39 39 39 39 39 40 41 42 43 44 44 44 45 46 47 49 50 50 52 52
16 17 18 18 19 21 21 21 21 22 21 21 21 20 21 22 22 21 21 21 20 19 19 19 19 20 21 22 23 23 22 22 23 24 24 24 25 26 26 28 28 29 29 30 29 31 33 33 33 33 32 33 34 35 36 38 37 37 37 38 38 38 38 39 40 41 41 41 41 42 43 44 44 45 45 46 47 47 49 51 52 53 54 53 52
19 20 21 21 22 23 23 23 22 21 20 20 19 19 20 20 20 20 20 21 21 20 19 19 18 18 19 20 22 22 22 23 24 24 25 25 25 26 27 27 28 29 30 31 32 33 33 33 34 34 34 35 37 38 38 39 38 38 39 40 40 40 40 41 42 43 43 44 44 45 46 46 46 46 46 46 47 47 48 48 49 50 51 50 50
22 22 23 23 24 23 23 23 22 21 21 20 20 20 21 22 22 22 21 22 22 21 21 20 18 18 19 20 21 22 23 24 26 26 26 26 26 28 28 28 28 30 31 32 32 32 32 33 34 35 36 37 38 39 40 41 41 41 41 42 42 43 43 43 44 44 46 47 47 48 49 49 49 49 48 47 48 50 50 49 49 52 53 53 55
23 24 24 25 24 24 23 23 23 22 21 21 20 20 22 24 26 25 24 24 25 24 24 23 22 23 23 23 23 25 26 27 28 28 28 29 30 31 32 31 32 32 33 33 34 33 33 34 36 37 38 38 39 40 41 42 43 44 44 45 45 46 47 47 48 48 48 49 50 51 52 52 53 52 51 51 52 55 56 57 58 59 60 60 61
24 25 26 26 26 25 24 24 24 23 23 22 21 21 22 24 25 26 27 28 28 27 27 27 27 27 27 27 27 28 29 30 31 31 32 33 33 33 35 35 35 36 36 36 36 37 37 38 39 40 41 42 42 41 41 41 43 44 46 46 47 48 48 49 51 53 53 53 54 54 55 55 55 55 56 57 58 59 60 61 61 62 62 62 63
26 25 26 26 26 26 26 25 25 25 25 24 24 24 24 24 25 27 28 29 28 28 29 29 29 29 30 30 30 31 31 32 32 33 33 33 34 35 36 37 38 39 40 40 40 41 42 43 44 45 46 47 46 45 44 44 46 47 48 48 49 49 50 51 53 56 57 58 59 58 58 58 59 60 61 62 62 62 62 61 61 62 63 63 64
28 28 28 28 28 28 27 27 26 26 26 27 27 27 27 26 27 28 29 29 29 30 30 31 31 32 32 33 33 34 35 35 36 36 36 36 37 38 38 39 40 40 41 41 42 44 44 44 45 47 48 48 48 48 49 49 50 52 52 53 53 54 55 56 57 59 60 61 61 60 59 59 60 61 62 64 65 64 61 61 61 62 63 64 63
31 31 31 31 30 29 28 27 26 26 27 27 28 29 29 30 30 30 30 31 31 32 33 33 33 34 34 35 36 36 37 38 39 40 40 39 39 40 41 42 42 43 44 43 43 44 45 45 47 48 49 50 51 53 54 55 56 57 57 58 59 60 60 61 61 61 62 63 64 64 63 62 63 64 66 67 65 60 57 58 59 59 60 60 59
35 34 34 33 32 31 30 29 29 28 28 28 28 29 30 31 31 32 32 33 34 35 35 35 35 35 36 37 38 38 39 39 40 41 41 40 40 40 42 43 45 47 49 49 50 51 51 51 52 53 54 55 56 58 59 60 61 62 62 63 64 65 65 65 65 66 66 67 68 68 69 70 70 71 70 68 61 53 50 52 54 54 56 58 59
36 36 35 34 34 33 32 31 30 30 30 30 30 30 31 32 32 33 34 35 36 37 38 39 39 39 39 39 39 39 39 39 40 41 42 42 42 43 44 46 47 49 51 53 54 55 55 56 57 57 58 59 60 61 62 63 64 65 66 67 68 68 69 69 69 70 71 71 71 72 72 72 71 69 67 64 60 55 52 53 56 58 60 60 60
33 33 34 34 35 35 34 33 31 31 31 31 31 31 31 32 32 33 34 35 36 37 38 40 40 40 39 38 39 39 39 39 40 41 42 43 44 46 48 50 52 54 54 55 55 55 56 58 59 59 60 61 61 62 63 64 65 65 65 65 65 66 66 67 68 68 69 69 68 68 68 66 65 64 62 62 62 61 61 62 64 64 62 60 57
30 30 30 31 32 34 34 33 32 32 32 32 32 32 32 32 33 34 34 35 36 37 38 39 39 39 39 40 40 41 42 42 43 43 44 46 47 48 49 51 53 55 56 56 57 57 59 60 61 62 62 63 63 64 65 65 66 65 65 65 65 65 65 65 66 67 66 66 66 66 66 66 65 65 65 63 63 64 65 66 64 61 60 60 57
31 31 31 31 32 33 33 34 33 33 33 33 33 33 34 34 35 35 35 36 37 37 38 39 40 41 42 43 44 45 45 46 47 47 48 49 50 51 51 52 53 55 56 57 58 59 60 61 62 63 63 64 65 65 66 66 67 67 68 68 68 68 68 68 69 69 69 69 70 70 71 71 72 72 71 71 70 70 70 68 65 63 62 62 62
31 31 31 31 32 32 33 33 33 32 32 33 33 34 35 35 36 36 37 37 38 39 40 41 42 43 44 45 46 47 47 48 49 50 50 51 52 53 54 54 55 56 57 58 59 60 61 62 62 63 63 64 65 65 66 67 68 69 70 71 72 72 72 73 73 73 73 73 73 73 73 74 74 75 75 76 77 78 78 78 77 75 73 70 68
31 31 31 31 32 32 32 32 32 33 33 34 34 35 36 36 37 37 38 39 40 41 42 43 44 45 46 47 48 49 50 51 52 53 53 54 55 56 56 57 58 59 60 61 62 62 63 64 64 64 65 65 65 66 66 67 68 69 70 71 72 73 74 74 75 76 76 76 75 75 74 74 73 73 73 73 73 74 75 77 77 77 76 74 72
31 31 32 32 33 33 33 34 34 35 35 36 36 37 37 38 39 40 41 42 43 44 45 46 47 48 49 50 51 52 53 54 55 56 57 58 58 59 60 61 61 62 62 62 62 62 63 63 62 62 63 63 63 63 63 64 65 65 66 67 68 69 70 71 71 72 73 73 73 73 73 72 71 71 71 70 68 66 67 68 69 70 70 70 69
32 33 33 34 34 35 35 36 37 37 38 38 39 40 41 41 42 43 44 44 45 46 47 48 49 50 51 52 54 54 56 57 58 59 60 60 61 62 62 62 62 61 61 60 60 59 59 58 58 58 59 59 60 60 60 60 61 62 62 63 63 64 65 66 66 67 68 69 70 70 69 70 70 69 67 67 65 64 63 63 63 63 62 62 62
35 36 36 37 37 37 37 38 38 39 39 40 41 41 42 42 43 44 45 46 46 47 48 50 51 52 53 54 55 56 57 58 59 60 61 61 61 60 59 58 57 56 56 55 55 55 55 54 55 55 56 57 57 58 58 58 59 59 60 60 60 61 61 61 62 62 62 62 63 63 63 63 62 62 61 61 61 59 57 55 53 52 52 52 51
37 37 37 38 38 38 38 38 39 39 40 40 41 42 43 43 44 45 46 46 47 48 49 50 51 52 52 53 54 54 55 55 55 56 55 55 54 54 53 52 52 52 52 52 52 52 53 53 53 53 54 54 55 55 55 56 56 57 57 57 57 58 58 58 58 59 59 59 59 58 57 56 55 54 52 51 49 48 47 46 45 45 44 44 44
37 37 37 37 38 38 38 39 39 40 40 41 42 42 43 44 44 45 45 46 46 47 47 48 48 49 49 50 50 50 50 50 50 50 49 49 49 49 49 49 49 49 49 50 50 50 50 50 50 50 50 50 51 51 52 52 53 54 55 55 56 57 57 57 58 58 58 57 56 55 52 50 49 48 45 43 42 42 42 42 42 42 42 42 42
37 38 38 38 38 39 39 39 39 39 40 40 41 41 42 42 43 43 43 44 45 45 45 46 46 46 46 46 46 46 46 46 46 46 46 46 47 47 47 47 47 47 47 47 47 46 46 46 45 45 46 47 48 49 50 51 52 53 54 55 56 57 57 57 57 57 56 55 53 51 48 45 44 42 39 37 37 38 38 38 38 38 39 40 38
39 39 39 38 38 38 37 37 37 37 38 38 39 39 40 40 41 41 41 42 42 42 42 43 43 43 43 43 43 43 43 43 43 43 43 44 44 44 44 44 44 44 43 43 43 42 42 42 43 43 44 45 46 47 49 50 51 52 54 55 56 56 56 56 55 53 50 47 44 41 37 35 34 33 33 33 35 35 36 37 37 36 35 33 31
39 39 38 37 36 36 36 36 36 36 37 37 38 38 38 39 39 39 39 39 40 40 40 40 40 40 40 40 40 40 40 40 40 40 40 40 40 39 39 39 39 39 39 39 39 39 40 40 41 41 42 43 44 45 47 49 50 51 52 52 51 49 47 45 43 40 37 33 30 28 27 27 27 28 30 31 32 31 30 30 29 28 27 26 26
37 36 36 35 35 35 35 35 35 35 36 36 36 37 37 37 37 38 38 38 38 38 38 38 37 37 37 36 36 36 36 36 36 36 36 35 35 35 35 35 35 35 35 35 36 36 36 37 37 38 39 40 42 43 45 46 46 46 44 42 38 34 30 27 25 23 22 22 21 22 24 25 27 29 30 29 27 25 23 22 23 24 25 26 26
34 34 34 34 34 34 34 34 34 34 34 35 35 35 35 35 36 36 35 35 35 35 35 34 34 33 33 32 32 32 32 32 32 32 32 32 31 31 31 31 31 31 32 32 32 33 33 34 35 35 37 38 39 40 40 40 39 36 32 29 26 24 23 23 21 18 17 18 21 23 23 24 25 26 25 23 21 21 22 24 25 26 27 27 26
32 33 33 33 33 33 33 33 33 33 33 33 33 33 33 33 33 33 33 33 32 32 31 30 30 30 29 29 29 28 28 28 28 28 28 28 27 27 27 28 28 29 29 30 31 31 32 33 33 34 34 35 36 36 35 33 30 27 25 23 23 22 23 26 27 23 19 18 21 22 21 19 18 18 17 18 19 21 24 26 26 25 24 24 23
32 33 33 32 32 32 32 32 31 31 31 31 31 31 31 31 31 30 30 30 29 28 28 27 27 26 26 25 25 25 25 25 25 24 24 24 25 25 26 27 27 28 29 30 30 31 32 32 32 32 32 32 32 32 31 29 26 24 22 21 20 19 19 20 21 20 18 17 17 16 14 13 12 13 15 17 19 20 21 21 21 20 20 22 23
32 32 32 31 31 30 30 30 29 29 29 29 28 28 29 29 28 28 27 27 26 25 25 24 23 23 23 23 23 22 22 22 22 22 23 24 25 26 26 27 28 28 29 30 31 31 32 32 31 30 30 29 29 28 27 26 24 23 21 19 17 16 15 14 14 14 16 17 17 15 13 11 11 12 14 16 18 18 18 18 19 20 22 23 22
30 30 30 29 29 29 28 28 27 27 27 27 27 27 27 27 26 26 25 24 23 22 22 21 21 21 21 21 21 21 21 21 21 22 23 24 25 26 27 27 28 29 30 31 32 32 32 31 30 29 27 26 26 25 25 23 22 21 20 17 15 14 14 13 13 13 15 16 17 16 14 12 12 13 15 17 19 19 19 20 22 24 25 25 24
29 29 28 28 27 27 26 26 26 25 25 25 25 25 25 25 24 23 22 21 21 20 20 20 20 20 20 20 20 20 20 20 21 22 23 24 25 26 27 28 29 30 32 33 33 33 32 30 28 26 25 24 24 24 23 22 22 22 21 19 17 16 14 13 13 13 13 13 13 12 11 11 12 15 16 18 19 20 21 22 24 25 26 26 26
27 27 26 26 26 25 25 24 24 24 25 24 24 24 24 23 22 21 20 19 19 19 19 19 19 19 20 20 20 20 20 20 21 22 23 24 25 26 27 28 30 32 33 33 33 31 29 27 24 22 21 21 21 21 21 21 20 21 21 21 20 19 18 16 15 15 14 13 13 12 12 13 14 16 17 19 20 22 23 25 26 27 28 29 29
26 25 25 25 24 24 24 24 24 24 24 24 24 23 22 22 21 20 19 18 18 19 19 19 19 19 19 19 19 19 19 20 21 22 23 24 25 25 27 28 30 31 31 30 29 28 25 23 21 20 19 19 19 20 20 19 17 17 18 18 18 18 18 17 17 16 16 16 16 16 16 16 16 17 19 20 21 22 23 24 25 25 26 26 27
25 24 24 24 24 24 24 24 24 24 24 24 23 23 22 22 21 20 19 19 19 19 19 19 19 19 18 18 18 18 19 20 21 22 23 23 24 25 26 28 29 29 28 26 25 23 21 20 19 18 17 17 18 18 18 17 16 14 14 14 14 14 14 14 14 15 15 15 15 15 15 16 16 17 18 18 18 18 18 18 18 17 16 16 16
24 24 24 24 24 25 25 25 25 25 24 24 23 23 22 22 22 21 20 20 20 19 19 19 19 18 18 18 18 18 19 20 21 22 23 23 23 24 26 27 28 27 25 23 22 20 19 18 17 16 16 16 17 17 17 16 15 13 13 12 12 13 13 13 13 13 12 12 12 12 13 13 13 12 12 12 12 11 11 11 10 10 10 10 10
24 24 24 25 25 25 25 25 25 25 25 24 23 23 23 23 22 22 21 21 20 20 19 19 19 19 19 19 19 19 20 21 22 22 22 22 22 24 25 26 26 25 23 22 20 19 18 17 16 16 15 15 15 16 16 15 14 13 12 12 11 11 11 11 10 10 10 9 9 9 9 8 8 7 8 8 9 10 10 10 11 11 11 11 12
Wind_Direction
239 238 237 239 241 243 243 242 241 240 237 234 232 229 226 224 224 226 232 238 242 246 249 249 245 245 246 244 243 243 245 247 248 250 252 253 255 256 256 256 257 259 261 263 263 262 261 259 257 257 258 259 260 262 265 268 270 270 271 271 272 274 275 276 276 276 276 276 278 281 284 287 290 292 295 297 296 296 298 299 300 300 300 299 300
238 236 234 237 239 238 237 236 237 236 232 228 227 225 223 223 223 222 228 237 241 244 248 250 250 250 249 248 247 246 247 249 250 252 254 254 253 251 252 255 258 261 261 262 261 260 260 258 256 257 258 259 260 263 265 267 268 268 267 267 269 271 273 274 274 274 276 277 278 281 283 286 288 290 292 292 292 292 294 296 297 298 298 298 298
239 238 235 236 239 236 234 235 236 235 232 227 225 223 222 224 224 223 227 234 238 243 247 250 252 253 252 251 248 247 247 250 252 255 257 256 252 249 250 254 258 261 262 262 262 261 260 259 257 257 257 259 260 262 265 267 268 267 267 267 268 269 270 270 271 272 275 276 278 279 281 283 285 286 286 286 287 287 289 291 293 293 294 294 294
239 241 239 238 238 234 233 236 236 235 233 231 230 228 227 228 228 227 229 232 236 241 246 250 253 255 255 251 247 246 247 250 254 256 257 256 253 250 250 253 257 261 263 264 265 264 263 263 261 259 258 258 259 261 264 267 268 268 268 268 268 268 268 268 269 271 273 275 276 277 278 280 281 282 282 281 281 282 283 285 286 287 288 288 289
236 239 239 235 232 230 232 236 235 233 234 235 236 235 233 233 233 231 231 234 239 243 248 251 254 256 255 250 247 247 249 253 256 257 258 257 255 252 251 253 257 261 264 266 267 267 266 266 264 262 260 258 258 259 262 265 268 270 269 269 269 268 268 268 269 271 273 275 276 276 276 277 277 276 275 275 276 277 278 279 279 280 281 282 283
234 237 237 232 230 230 235 239 236 232 233 235 237 237 235 234 235 235 235 238 242 246 248 251 252 253 253 252 250 250 252 254 255 256 255 254 250 248 251 256 261 264 265 266 267 267 267 267 266 264 260 258 257 256 259 263 266 268 269 269 269 269 269 270 271 272 274 276 276 276 275 274 273 272 271 271 272 273 274 274 275 276 277 278 279
236 239 238 236 235 235 239 243 239 233 231 233 234 235 234 235 237 239 240 242 245 247 249 250 251 251 252 253 252 251 252 254 253 252 250 247 244 245 252 258 262 266 268 268 268 267 267 267 266 264 262 259 257 256 258 261 264 267 269 269 270 271 271 272 273 274 275 276 276 275 275 274 273 272 272 272 273 274 274 274 275 276 277 277 276
241 243 241 240 241 240 240 239 236 234 234 237 238 238 237 238 239 241 243 244 246 248 249 250 252 252 251 252 252 252 253 254 253 249 248 246 245 248 256 261 265 267 268 268 267 266 267 268 268 267 266 264 261 259 260 262 265 267 269 269 269 270 270 272 274 275 276 277 277 277 276 275 275 274 275 275 275 276 276 275 275 274 273 272 272
243 243 242 242 244 246 243 237 234 236 239 240 241 241 240 240 241 243 244 245 246 247 248 250 251 250 249 250 251 252 253 253 251 248 247 246 246 252 260 265 268 268 267 265 263 262 264 267 269 269 267 266 265 264 263 264 265 267 268 268 268 268 270 271 271 273 275 274 275 277 276 275 275 275 275 276 276 276 276 274 273 272 270 269 269
242 242 242 244 247 247 243 237 236 239 240 241 241 241 240 240 242 243 245 247 247 247 248 249 250 249 247 248 250 252 253 252 250 250 249 248 249 257 265 269 271 269 266 263 260 260 264 268 271 270 268 267 266 265 265 265 266 267 267 267 267 268 270 270 270 271 272 271 274 276 276 274 274 274 274 275 275 276 276 274 273 273 271 269 268
239 241 242 245 246 244 240 237 237 239 240 241 242 242 243 243 244 246 248 249 249 248 247 247 247 247 249 249 250 252 253 252 253 253 254 252 254 261 268 271 271 269 266 263 261 263 268 271 272 271 270 269 268 267 267 267 267 267 267 267 267 268 269 271 271 272 271 271 272 271 271 274 274 272 271 272 272 273 275 275 275 274 272 271 270
237 240 241 242 240 237 238 240 240 241 242 242 243 245 247 247 246 248 250 252 253 253 251 249 246 246 249 251 251 252 253 254 255 256 257 258 259 263 267 268 269 267 264 262 261 263 267 270 271 272 271 271 270 270 270 270 270 269 269 268 268 269 270 271 272 272 271 271 270 268 269 272 273 272 272 274 273 273 275 277 277 277 277 276 275
239 240 240 239 234 233 237 240 240 242 243 242 245 251 254 254 252 249 250 253 255 256 256 254 250 248 250 252 252 251 252 254 256 258 259 260 260 261 262 263 264 262 259 259 260 262 265 269 270 271 271 272 271 271 271 271 271 271 271 271 270 271 272 272 272 272 272 271 270 270 270 270 272 274 275 275 275 274 275 277 279 280 280 280 279
235 236 239 239 234 232 236 238 237 239 238 239 246 252 257 262 260 253 253 256 257 257 256 254 253 255 257 256 253 249 248 249 252 255 257 257 257 256 257 258 259 258 258 261 263 265 267 268 269 269 270 271 272 271 271 272 272 272 272 272 272 273 273 273 273 273 273 273 272 272 273 273 274 275 275 275 275 274 276 280 282 281 281 282 282
229 227 232 235 233 231 234 236 236 238 239 240 245 251 256 261 260 256 257 260 261 258 254 250 251 255 256 255 252 250 249 249 249 251 252 253 253 254 255 257 258 258 258 261 265 267 267 267 268 267 266 267 267 267 268 269 269 270 272 272 273 273 273 273 273 273 273 273 274 274 274 275 274 273 274 275 276 276 279 282 283 282 282 284 284
236 228 225 228 229 231 235 238 243 248 248 247 247 251 256 259 259 258 260 262 262 259 253 251 253 254 254 253 252 254 256 258 257 256 256 256 257 259 261 262 263 263 262 260 261 265 267 268 268 267 267 267 266 265 265 266 267 268 270 271 271 272 272 271 270 271 271 272 273 273 273 273 272 272 274 275 277 279 282 283 283 283 283 284 284
245 240 235 235 236 237 239 242 246 250 250 248 247 248 252 256 259 259 259 259 260 260 261 262 261 257 254 253 254 256 259 261 263 263 263 264 265 267 269 270 270 269 264 261 262 265 267 267 267 267 268 268 266 265 266 267 267 267 268 268 269 270 270 268 268 269 270 270 271 271 271 271 271 272 274 275 277 280 281 282 282 281 281 281 281
249 246 244 244 244 243 243 242 242 244 245 245 245 243 245 251 256 259 261 262 262 263 266 267 264 257 251 251 253 255 257 259 260 262 264 266 268 270 271 272 273 271 267 266 268 269 269 268 268 267 267 265 264 266 268 268 268 267 267 267 267 268 269 268 267 268 269 269 270 270 270 269 270 270 272 274 277 280 280 281 282 281 280 280 282
251 249 247 246 245 244 244 242 241 240 241 242 240 239 238 241 246 252 258 262 264 265 264 262 260 256 253 252 252 253 253 254 256 258 260 262 264 265 266 267 268 269 268 268 268 269 269 269 267 265 265 264 264 266 268 269 269 269 269 268 268 268 268 268 267 268 268 269 269 269 269 268 268 268 268 271 276 278 278 279 279 279 279 279 280
248 248 247 246 245 243 243 243 243 243 243 242 241 240 238 239 243 246 247 251 255 258 257 255 254 254 255 256 256 256 256 256 258 260 261 263 265 266 266 266 265 264 265 266 266 265 264 265 265 264 266 267 268 270 270 269 268 268 269 270 270 269 269 269 270 270 269 268 268 268 267 267 266 266 266 270 274 276 277 277 277 276 277 277 277
246 245 245 245 245 245 245 246 247 248 248 248 248 247 246 245 246 245 245 246 248 250 251 252 253 255 257 257 258 258 259 260 262 264 265 267 268 268 268 268 266 263 263 263 263 263 262 263 265 266 268 269 271 271 271 270 268 268 269 269 269 269 269 270 270 270 269 269 269 268 267 266 265 265 267 271 274 277 279 279 278 277 278 277 276
247 245 244 244 246 247 247 248 250 251 253 254 254 253 252 250 250 250 250 250 251 252 254 255 256 257 258 258 258 259 260 261 262 264 266 269 270 270 269 268 266 264 263 263 263 263 263 263 265 266 267 269 269 268 267 267 269 269 270 270 269 269 269 269 270 270 270 270 270 270 269 269 267 268 270 273 277 280 281 280 278 277 277 277 276
249 248 247 248 250 250 249 249 250 251 252 254 255 255 254 253 254 255 255 255 255 256 256 257 258 259 260 261 262 262 263 264 265 266 268 269 271 271 270 267 265 263 263 263 263 264 263 263 263 264 265 266 267 268 268 269 270 271 272 273 272 272 272 272 272 272 271 271 271 271 272 272 272 273 274 277 281 283 282 279 277 276 276 276 276
250 249 249 250 251 251 250 250 252 252 252 252 253 254 254 255 257 258 259 259 260 260 260 261 262 263 265 266 267 268 268 269 270 270 271 272 273 275 274 270 267 266 265 264 263 262 262 263 264 265 265 265 265 267 268 269 269 271 272 273 273 274 274 274 274 273 273 272 272 273 273 274 275 277 278 281 283 283 279 276 274 274 274 274 275
253 252 250 249 247 247 249 252 255 256 257 256 256 255 256 257 258 260 261 263 265 266 267 268 268 270 271 272 272 272 272 273 274 274 274 273 272 273 273 272 270 269 269 268 266 264 264 265 265 266 266 265 265 265 266 267 268 269 271 272 273 273 274 274 274 273 273 273 273 274 274 275 276 278 280 281 279 275 271 271 271 272 273 275 275
250 249 247 246 245 246 250 255 258 259 260 260 259 259 258 259 259 261 262 264 266 267 268 269 270 272 273 273 272 272 272 274 275 275 275 273 271 268 268 268 268 269 269 270 269 269 269 269 269 269 269 269 269 269 269 269 270 271 272 272 273 273 274 274 273 273 273 273 274 275 276 277 279 280 279 278 274 269 265 266 269 273 276 276 276
248 245 243 242 243 247 252 256 259 260 262 262 261 261 261 261 261 262 263 265 267 268 269 270 272 274 274 274 274 274 274 275 275 274 273 272 271 268 267 267 267 268 269 270 271 272 272 272 272 272 272 272 272 273 273 273 273 274 275 275 275 275 275 275 275 275 275 275 275 276 277 277 277 277 275 273 270 267 265 267 270 273 275 274 275
256 254 251 249 249 252 255 258 260 261 262 262 263 264 265 266 266 266 267 268 269 270 271 272 273 274 275 274 275 275 276 276 275 275 274 274 273 272 270 269 269 270 271 272 273 273 274 274 274 274 274 274 275 275 275 276 276 276 277 276 276 276 275 275 274 274 274 274 274 274 274 274 273 273 272 270 268 266 266 267 268 270 273 274 273
259 259 258 256 256 256 257 258 260 261 262 262 264 265 266 267 268 269 269 270 271 271 272 273 274 275 276 276 277 277 277 277 277 277 277 277 277 276 275 275 274 274 274 275 275 275 275 276 276 276 276 276 276 276 276 276 276 276 276 276 276 276 276 275 274 274 274 273 273 273 273 273 272 271 271 271 271 271 271 270 270 271 273 274 274
258 258 257 257 256 256 257 258 259 260 261 262 263 264 265 266 268 269 270 271 272 273 274 275 276 277 277 278 278 278 278 278 278 278 278 278 278 278 278 278 278 277 277 277 277 278 278 277 277 277 277 277 276 276 276 275 275 275 275 275 275 276 276 276 277 277 276 276 276 276 275 275 275 274 273 273 273 274 275 275 275 276 275 275 274
257 257 258 258 258 257 258 259 259 260 262 263 264 266 267 268 269 270 271 273 274 275 275 276 277 277 278 278 279 279 279 279 279 279 279 279 279 279 279 279 279 279 279 279 279 279 279 279 279 279 278 278 277 277 276 276 276 276 276 276 276 276 276 276 277 277 278 278 278 279 279 279 279 278 277 277 276 276 276 276 276 277 277 277 277
257 258 258 259 259 260 260 261 262 263 264 265 266 267 268 269 270 271 272 273 274 275 275 276 277 277 278 278 278 278 279 279 279 279 279 279 280 280 280 280 280 280 280 280 280 280 280 280 280 279 279 279 279 279 279 278 278 277 277 277 277 277 277 277 277 277 277 278 278 279 279 280 280 279 280 280 279 279 278 278 277 277 277 277 277
258 258 259 260 260 261 262 263 264 265 265 266 267 268 269 270 271 272 272 273 274 274 275 275 276 276 277 277 277 278 278 278 278 279 279 279 279 280 280 280 280 281 281 281 280 280 281 281 281 281 281 281 281 281 281 281 281 281 281 281 280 280 280 279 279 278 278 278 278 279 279 279 280 280 280 281 281 280 280 280 280 280 279 278 278
260 260 260 261 262 262 263 264 265 266 266 267 268 269 269 270 271 272 273 273 274 274 275 276 276 277 277 277 278 278 278 278 279 279 279 279 280 280 281 281 281 281 282 282 282 283 283 283 283 283 283 283 283 283 283 283 283 283 284 284 284 283 283 283 282 282 281 280 280 280 280 280 280 280 280 280 280 280 280 280 279 279 279 278 279
261 261 262 263 263 264 264 265 266 266 267 268 269 270 270 271 271 272 273 274 275 275 276 277 278 278 278 279 279 279 279 280 280 280 280 280 281 281 281 282 282 283 284 284 285 285 285 285 286 286 286 286 286 286 287 287 287 287 287 287 287 286 286 285 285 284 283 283 282 282 282 281 280 279 278 278 278 277 276 275 274 273 272 273 274
262 262 263 263 264 265 265 266 267 268 269 270 270 271 271 272 273 273 274 275 275 276 276 277 277 278 278 278 278 279 279 279 279 279 280 280 281 281 282 283 283 284 285 285 285 286 286 286 287 287 288 288 289 289 289 290 290 290 289 289 288 287 287 286 285 284 284 284 283 282 281 279 277 276 275 274 273 272 271 271 270 269 269 271 272
266 266 267 268 268 269 269 270 270 271 271 271 272 272 272 273 274 274 275 275 276 276 276 277 276 277 277 277 277 277 277 277 278 278 279 280 281 281 282 283 284 285 285 286 286 287 287 288 288 289 289 290 291 291 292 292 291 291 291 290 289 288 286 285 284 283 282 281 280 280 278 276 275 274 271 268 267 268 268 269 270 271 272 273 272
271 272 272 272 272 272 272 272 271 271 271 272 272 273 274 274 275 275 276 276 277 277 277 277 277 277 276 276 277 277 277 277 278 279 280 281 281 282 283 284 285 286 286 287 288 288 289 290 290 291 291 292 292 293 293 293 293 293 293 291 290 288 286 284 282 281 280 278 276 274 272 270 271 271 269 267 266 266 266 266 266 266 266 264 261
272 272 272 271 270 270 270 270 270 271 271 272 273 274 275 275 276 276 277 277 278 278 278 278 278 278 277 277 277 278 279 279 280 281 282 283 284 285 286 287 288 288 289 289 290 290 291 291 292 293 293 294 294 295 295 296 296 295 294 292 291 289 287 284 282 280 277 274 270 266 264 265 268 268 267 265 261 258 257 257 258 259 259 258 258
268 267 266 266 266 267 267 268 269 271 271 273 274 274 275 276 276 277 277 278 278 278 279 279 279 279 279 279 280 280 281 282 283 284 286 287 288 289 289 289 290 290 290 291 292 292 293 294 295 296 296 297 297 298 298 298 297 296 296 297 295 290 284 282 282 281 275 267 260 259 261 263 262 262 262 260 256 255 260 265 267 269 271 272 273
263 263 263 264 264 265 267 268 269 270 271 273 274 274 274 275 276 277 278 279 279 279 280 280 281 281 281 282 282 283 284 285 286 288 289 290 290 290 290 291 292 292 293 294 295 296 298 299 300 300 300 300 300 301 301 301 301 302 305 307 301 289 277 274 277 280 277 267 258 256 257 259 259 260 261 263 265 270 274 276 277 278 278 279 279
261 261 262 263 264 265 267 268 269 270 270 271 272 273 274 275 276 278 279 280 280 281 281 282 282 282 283 283 283 284 285 286 288 289 290 290 291 292 293 294 295 296 297 298 299 300 301 302 304 304 304 304 305 306 305 305 306 308 311 314 311 298 284 277 273 271 272 273 270 267 266 268 267 266 267 269 271 272 272 273 276 279 281 282 282
260 261 262 263 263 264 265 266 267 268 268 269 271 272 274 275 277 279 280 280 281 281 281 282 282 282 282 282 283 284 285 287 288 289 291 292 294 295 296 297 297 298 299 300 301 302 303 304 305 307 307 308 310 311 309 308 308 308 309 312 315 311 302 289 277 270 272 279 283 284 284 281 272 265 264 267 270 271 272 274 278 280 283 284 281
258 259 260 261 261 262 263 263 264 265 266 268 270 272 273 275 277 278 279 279 279 280 280 279 279 279 279 280 281 283 285 286 288 290 292 294 296 296 297 298 299 300 301 301 302 303 304 304 305 306 308 310 313 313 310 306 306 307 309 312 315 318 317 310 296 283 282 287 289 290 291 287 277 269 268 271 275 278 279 280 281 283 286 285 278
257 258 258 259 259 260 260 261 262 264 265 267 269 270 272 273 275 276 276 276 276 276 276 275 275 276 277 278 280 282 283 285 288 290 293 295 296 297 298 299 301 302 303 304 305 305 305 304 303 305 307 310 313 315 310 303 299 301 305 308 311 314 314 311 303 293 288 287 285 284 283 285 287 284 280 278 279 280 281 280 280 282 284 283 279
256 256 256 257 257 258 259 260 261 263 264 266 267 268 269 270 272 272 272 272 272 272 272 272 272 273 275 276 278 280 282 285 288 291 294 296 298 299 300 302 304 305 306 306 306 305 304 302 301 303 306 310 313 316 314 306 297 294 295 298 302 305 306 306 304 300 296 293 289 283 280 281 283 282 280 278 279 280 281 282 282 283 283 284 283
255 255 255 256 257 258 259 260 261 262 263 264 265 265 265 266 267 267 267 267 268 268 268 269 270 271 272 274 276 279 282 286 291 295 298 300 301 303 304 306 307 308 308 308 307 304 301 299 298 301 306 310 314 319 319 313 303 295 291 290 292 295 297 298 298 298 298 297 295 290 285 282 279 278 278 279 281 283 285 286 288 288 288 287 286
254 255 255 257 258 258 259 259 260 261 261 262 262 261 261 261 261 261 262 263 263 264 264 266 267 269 272 274 277 282 286 292 296 300 302 303 304 306 308 310 311 312 312 311 308 305 301 298 298 302 307 312 317 322 325 322 313 303 298 295 294 294 294 294 293 293 293 291 290 288 287 286 285 285 286 288 289 291 292 294 294 294 292 289 285
255 256 256 257 257 258 258 258 258 258 258 258 258 257 257 256 256 257 258 259 259 259 260 263 266 268 271 275 280 286 292 297 301 303 304 305 306 309 312 314 317 318 316 314 311 308 303 300 301 306 311 316 321 326 329 329 324 316 310 308 307 305 304 303 301 299 297 295 294 293 292 292 293 295 297 299 300 302 304 305 306 305 303 298 292
256 257 257 257 257 258 258 257 256 255 254 254 254 254 254 254 254 254 255 255 254 254 257 261 265 267 271 277 282 289 294 299 303 305 305 306 309 312 316 320 323 323 321 319 317 314 309 304 303 308 313 319 324 329 333 335 334 329 323 319 319 318 317 316 314 312 310 308 306 305 304 304 305 306 307 309 311 313 315 317 318 320 322 319 313
257 257 257 257 257 257 256 255 254 253 251 250 251 252 253 253 253 253 253 251 249 250 254 260 264 268 272 278 283 289 294 299 302 304 305 307 311 316 321 325 327 327 326 324 323 322 317 311 306 307 311 317 323 328 333 337 339 338 334 329 327 327 327 327 326 326 325 323 322 321 320 317 313 311 312 314 314 314 314 312 310 310 311 310 308
Height
5756 5756 5757 5757 5757 5757 5758 5758 5759 5760 5761 5761 5762 5763 5764 5765 5765 5767 5768 5770 5771 5772 5773 5774 5774 5775 5776 5777 5778 5779 5780 5781 5782 5784 5784 5785 5786 5786 5787 5787 5788 5788 5788 5788 5789 5789 5789 5789 5790 5790 5790 5790 5790 5790 5790 5790 5790 5790 5790 5790 5789 5789 5789 5789 5789 5789 5789 5789 5789 5789 5789 5789 5789 5789 5789 5789 5789 5789 5789 5789 5789 5789 5788 5788 5788
5753 5753 5754 5754 5755 5755 5755 5755 5756 5757 5758 5758 5759 5760 5761 5762 5763 5764 5766 5767 5768 5769 5770 5771 5772 5773 5774 5775 5776 5777 5778 5779 5780 5781 5782 5783 5784 5784 5785 5785 5785 5786 5786 5786 5786 5786 5786 5787 5787 5787 5787 5787 5787 5787 5787 5787 5787 5788 5788 5787 5787 5787 5786 5787 5787 5787 5787 5787 5787 5787 5787 5787 5787 5787 5787 5787 5787 5787 5787 5787 5787 5787 5786 5786 5786
5751 5751 5752 5752 5753 5753 5753 5753 5754 5755 5756 5756 5757 5758 5759 5760 5761 5762 5764 5765 5766 5767 5768 5769 5770 5771 5772 5774 5775 5776 5776 5777 5778 5779 5779 5780 5781 5782 5782 5783 5783 5783 5783 5783 5783 5784 5784 5784 5784 5784 5784 5784 5784 5784 5785 5785 5785 5785 5785 5785 5785 5785 5784 5784 5784 5784 5784 5784 5784 5784 5784 5784 5784 5784 5784 5784 5784 5784 5784 5784 5784 5784 5784 5784 5784
5750 5750 5750 5751 5751 5751 5751 5751 5752 5754 5755 5756 5757 5758 5758 5759 5760 5761 5762 5763 5764 5765 5766 5767 5768 5769 5771 5772 5773 5774 5774 5775 5776 5776 5777 5778 5778 5779 5780 5780 5780 5781 5781 5781 5781 5781 5781 5781 5782 5782 5782 5782 5782 5782 5782 5782 5782 5782 5782 5782 5782 5782 5782 5782 5782 5782 5782 5782 5782 5782 5782 5782 5782 5782 5782 5782 5781 5782 5782 5782 5782 5782 5782 5782 5782
5747 5745 5745 5747 5748 5749 5750 5750 5751 5753 5755 5756 5757 5757 5758 5759 5759 5760 5761 5762 5763 5763 5764 5765 5766 5768 5768 5770 5771 5772 5772 5773 5774 5774 5775 5776 5776 5777 5777 5778 5778 5778 5778 5778 5779 5779 5779 5779 5779 5779 5779 5779 5779 5779 5779 5779 5779 5779 5780 5780 5780 5780 5780 5780 5780 5780 5780 5780 5780 5780 5779 5779 5779 5779 5779 5779 5779 5779 5779 5779 5779 5779 5779 5779 5779
5743 5741 5741 5743 5746 5748 5749 5750 5752 5753 5754 5754 5755 5756 5757 5757 5758 5759 5761 5761 5762 5762 5762 5763 5764 5765 5766 5767 5769 5770 5771 5771 5772 5772 5773 5774 5774 5775 5775 5775 5776 5776 5776 5776 5776 5777 5777 5777 5777 5777 5777 5777 5777 5777 5777 5777 5777 5777 5777 5777 5778 5778 5777 5777 5777 5777 5777 5778 5777 5777 5777 5777 5777 5776 5776 5776 5776 5776 5776 5776 5776 5776 5776 5776 5776
5739 5739 5740 5742 5744 5746 5747 5749 5750 5751 5751 5751 5752 5753 5754 5755 5756 5757 5759 5760 5760 5760 5761 5761 5762 5763 5764 5765 5767 5768 5769 5769 5770 5770 5771 5771 5772 5772 5773 5773 5773 5773 5773 5774 5774 5774 5774 5775 5775 5775 5775 5774 5774 5774 5774 5774 5774 5774 5775 5775 5775 5775 5775 5775 5775 5775 5775 5775 5775 5775 5775 5774 5774 5774 5774 5774 5773 5773 5773 5773 5773 5773 5773 5773 5773
5736 5737 5738 5740 5742 5743 5744 5745 5747 5748 5749 5749 5750 5751 5752 5753 5754 5755 5756 5758 5758 5759 5759 5759 5760 5761 5762 5763 5764 5765 5766 5767 5768 5768 5768 5769 5769 5770 5771 5771 5771 5771 5771 5771 5771 5771 5772 5772 5772 5772 5772 5772 5772 5771 5771 5771 5771 5772 5772 5772 5772 5772 5772 5772 5772 5772 5772 5772 5772 5772 5772 5771 5771 5771 5771 5771 5770 5770 5770 5770 5770 5770 5770 5770 5770
5734 5734 5735 5736 5738 5739 5740 5742 5744 5745 5746 5747 5748 5749 5750 5750 5751 5752 5754 5755 5756 5756 5757 5757 5758 5758 5759 5760 5761 5763 5764 5765 5765 5766 5766 5767 5767 5768 5769 5769 5769 5769 5769 5769 5769 5769 5769 5769 5770 5770 5770 5769 5769 5769 5768 5769 5769 5769 5769 5769 5770 5770 5770 5770 5770 5770 5770 5770 5769 5769 5769 5768 5768 5768 5768 5767 5767 5767 5767 5766 5767 5766 5766 5766 5766
5731 5731 5732 5733 5734 5735 5737 5738 5740 5742 5743 5744 5746 5747 5747 5748 5749 5750 5751 5752 5753 5753 5754 5754 5755 5756 5757 5758 5759 5760 5761 5762 5763 5763 5764 5765 5765 5766 5766 5766 5766 5766 5766 5766 5766 5766 5766 5767 5767 5767 5766 5766 5766 5766 5766 5765 5766 5766 5766 5766 5767 5767 5767 5767 5768 5768 5768 5767 5767 5767 5766 5765 5765 5765 5764 5764 5764 5764 5763 5763 5763 5762 5761 5762 5762
5728 5728 5729 5730 5731 5732 5734 5736 5738 5739 5740 5742 5743 5744 5745 5745 5746 5747 5748 5749 5750 5751 5751 5752 5752 5753 5754 5755 5756 5757 5758 5759 5760 5761 5762 5763 5763 5764 5763 5763 5763 5762 5762 5762 5763 5763 5764 5764 5764 5763 5763 5763 5763 5763 5762 5762 5762 5763 5763 5763 5764 5764 5764 5764 5764 5765 5765 5764 5764 5764 5763 5762 5761 5761 5760 5761 5760 5760 5760 5759 5759 5758 5757 5757 5758
5725 5725 5726 5727 5728 5729 5731 5733 5735 5737 5737 5739 5740 5741 5742 5743 5744 5744 5745 5746 5747 5747 5748 5749 5750 5751 5752 5752 5753 5754 5755 5756 5756 5758 5759 5760 5761 5761 5760 5760 5760 5759 5759 5759 5760 5760 5760 5761 5761 5760 5760 5759 5759 5759 5759 5759 5759 5759 5759 5760 5760 5760 5760 5760 5760 5761 5761 5761 5761 5761 5760 5759 5758 5757 5757 5757 5756 5756 5756 5756 5755 5755 5754 5753 5753
5722 5722 5723 5724 5726 5727 5728 5731 5733 5734 5734 5736 5737 5738 5739 5739 5740 5741 5741 5743 5743 5744 5745 5746 5747 5748 5749 5750 5750 5751 5752 5752 5753 5754 5755 5756 5757 5757 5757 5757 5757 5757 5757 5757 5757 5757 5757 5757 5758 5758 5757 5756 5756 5756 5756 5756 5756 5756 5756 5756 5756 5756 5756 5756 5757 5757 5757 5757 5757 5757 5757 5756 5755 5754 5753 5753 5753 5752 5752 5751 5751 5750 5749 5749 5748
5719 5720 5721 5722 5723 5725 5726 5728 5730 5731 5732 5733 5734 5735 5736 5736 5737 5737 5738 5739 5740 5741 5742 5743 5744 5745 5745 5746 5747 5748 5748 5749 5750 5750 5751 5752 5753 5754 5754 5754 5754 5754 5755 5755 5755 5755 5755 5755 5755 5755 5755 5754 5753 5752 5752 5752 5752 5753 5753 5753 5753 5753 5752 5752 5753 5752 5752 5752 5752 5753 5752 5752 5752 5751 5750 5749 5748 5748 5748 5747 5747 5745 5744 5744 5743
5717 5718 5719 5720 5721 5723 5724 5726 5727 5728 5729 5731 5732 5733 5733 5733 5734 5735 5735 5736 5737 5738 5739 5740 5741 5741 5742 5742 5743 5744 5745 5746 5746 5747 5747 5748 5749 5750 5751 5751 5752 5752 5753 5754 5754 5753 5753 5752 5752 5752 5752 5752 5751 5749 5748 5748 5749 5749 5749 5749 5749 5749 5749 5749 5748 5748 5747 5747 5747 5748 5747 5747 5747 5746 5746 5745 5744 5743 5744 5743 5742 5740 5740 5739 5737
5717 5717 5718 5718 5719 5721 5722 5723 5724 5725 5727 5728 5729 5731 5731 5731 5732 5733 5733 5734 5735 5735 5736 5737 5738 5738 5739 5739 5740 5741 5741 5742 5743 5743 5744 5745 5746 5747 5748 5749 5749 5750 5751 5752 5752 5751 5750 5750 5750 5749 5749 5749 5747 5746 5745 5745 5746 5746 5746 5745 5745 5745 5745 5745 5744 5743 5743 5743 5743 5743 5743 5742 5742 5742 5741 5740 5740 5740 5739 5738 5737 5736 5736 5734 5732
5716 5716 5717 5718 5718 5719 5720 5721 5722 5723 5724 5726 5727 5729 5729 5729 5729 5730 5731 5731 5732 5733 5734 5735 5735 5736 5736 5737 5737 5738 5738 5739 5739 5740 5741 5741 5742 5743 5744 5745 5746 5747 5748 5748 5748 5748 5748 5748 5747 5746 5747 5747 5744 5741 5741 5742 5742 5742 5742 5742 5741 5741 5741 5741 5739 5739 5739 5738 5738 5738 5738 5738 5737 5737 5736 5735 5735 5735 5734 5732 5732 5731 5730 5729 5727
5714 5715 5716 5716 5717 5718 5718 5719 5721 5721 5722 5723 5725 5726 5727 5727 5727 5727 5728 5729 5729 5730 5731 5732 5732 5733 5733 5734 5734 5735 5735 5736 5736 5737 5737 5738 5739 5740 5740 5741 5742 5743 5743 5744 5744 5744 5744 5743 5742 5742 5742 5742 5740 5738 5738 5738 5738 5738 5738 5737 5737 5737 5737 5736 5735 5734 5734 5734 5734 5734 5733 5733 5732 5732 5731 5730 5730 5730 5728 5728 5727 5724 5723 5722 5722
5712 5713 5714 5714 5715 5715 5716 5717 5718 5719 5720 5721 5722 5723 5724 5725 5724 5725 5725 5726 5726 5727 5728 5729 5729 5730 5730 5732 5732 5732 5733 5733 5733 5733 5734 5734 5735 5736 5736 5737 5738 5738 5738 5739 5739 5739 5739 5737 5736 5735 5734 5735 5735 5734 5734 5733 5733 5733 5732 5732 5733 5733 5732 5730 5729 5730 5729 5729 5729 5728 5728 5727 5726 5726 5726 5725 5724 5723 5723 5723 5721 5719 5717 5716 5715
5710 5711 5711 5712 5713 5713 5714 5715 5716 5716 5717 5718 5719 5720 5721 5721 5722 5722 5723 5723 5723 5724 5724 5725 5726 5727 5727 5729 5729 5729 5730 5730 5730 5730 5731 5731 5732 5732 5732 5732 5733 5733 5733 5733 5734 5734 5733 5731 5729 5728 5728 5728 5729 5729 5728 5728 5727 5727 5727 5727 5727 5727 5726 5725 5724 5724 5724 5723 5723 5722 5721 5721 5719 5719 5719 5719 5718 5717 5716 5716 5715 5713 5711 5709 5707
5708 5708 5709 5710 5710 5711 5712 5712 5713 5714 5715 5715 5716 5717 5717 5718 5719 5719 5719 5719 5720 5721 5721 5722 5723 5723 5724 5725 5725 5725 5726 5726 5726 5727 5727 5727 5728 5728 5727 5727 5728 5728 5727 5728 5728 5728 5727 5727 5725 5723 5723 5723 5723 5723 5722 5721 5721 5721 5720 5721 5720 5720 5720 5719 5717 5717 5717 5717 5716 5715 5714 5714 5713 5712 5712 5711 5711 5710 5709 5708 5706 5704 5703 5700 5696
5705 5706 5706 5707 5708 5708 5709 5710 5710 5711 5711 5712 5712 5713 5714 5714 5715 5716 5716 5716 5717 5717 5718 5719 5719 5720 5720 5721 5721 5721 5721 5722 5722 5722 5723 5723 5723 5723 5723 5722 5723 5722 5722 5723 5723 5721 5721 5722 5721 5719 5718 5718 5717 5717 5717 5716 5715 5714 5714 5714 5713 5713 5713 5713 5711 5710 5709 5708 5708 5708 5706 5705 5705 5704 5704 5703 5703 5703 5702 5699 5697 5695 5692 5690 5686
5702 5703 5703 5704 5705 5705 5706 5707 5707 5708 5708 5708 5709 5710 5710 5710 5711 5711 5712 5713 5713 5713 5714 5715 5715 5716 5716 5717 5717 5717 5717 5717 5717 5717 5718 5718 5718 5718 5718 5717 5717 5717 5716 5717 5717 5715 5715 5716 5715 5713 5712 5712 5711 5711 5711 5710 5709 5708 5707 5706 5706 5705 5705 5705 5704 5703 5701 5700 5700 5700 5698 5696 5695 5695 5695 5695 5695 5695 5693 5689 5687 5685 5682 5680 5678
5698 5699 5700 5701 5701 5702 5703 5703 5704 5704 5705 5705 5705 5706 5706 5707 5707 5708 5708 5709 5709 5709 5710 5711 5711 5711 5711 5712 5712 5712 5712 5712 5712 5712 5712 5712 5712 5712 5712 5712 5711 5711 5711 5711 5711 5710 5709 5709 5708 5707 5706 5706 5705 5704 5704 5703 5702 5701 5700 5699 5698 5697 5697 5697 5696 5695 5694 5692 5691 5690 5689 5687 5686 5686 5686 5687 5688 5687 5683 5679 5677 5676 5674 5672 5671
5694 5695 5696 5697 5698 5699 5699 5700 5700 5701 5701 5701 5702 5702 5703 5703 5703 5704 5704 5705 5705 5705 5706 5706 5706 5707 5707 5706 5707 5706 5706 5707 5707 5706 5706 5707 5707 5707 5706 5706 5705 5705 5704 5705 5705 5704 5703 5702 5702 5701 5699 5698 5698 5697 5696 5695 5694 5693 5692 5691 5690 5689 5689 5688 5687 5686 5685 5684 5682 5681 5679 5678 5678 5678 5677 5678 5679 5677 5673 5670 5669 5668 5666 5665 5663
5689 5690 5691 5692 5693 5694 5695 5696 5696 5696 5697 5697 5697 5698 5698 5699 5699 5699 5700 5700 5700 5701 5701 5701 5701 5701 5701 5701 5701 5701 5701 5702 5701 5700 5700 5701 5701 5701 5701 5700 5700 5699 5698 5698 5697 5697 5696 5695 5694 5693 5692 5691 5690 5689 5688 5687 5686 5685 5684 5683 5681 5681 5680 5679 5678 5676 5675 5675 5674 5672 5670 5669 5669 5669 5667 5666 5668 5668 5665 5662 5661 5660 5658 5656 5655
5685 5685 5686 5687 5688 5690 5691 5691 5691 5692 5692 5692 5693 5693 5693 5694 5694 5694 5695 5695 5695 5695 5695 5695 5695 5695 5695 5695 5695 5695 5696 5696 5696 5695 5695 5695 5694 5694 5694 5693 5693 5692 5691 5690 5690 5690 5689 5687 5686 5685 5685 5683 5682 5681 5680 5679 5678 5676 5675 5674 5672 5672 5671 5670 5668 5667 5666 5665 5665 5663 5662 5661 5660 5659 5658 5657 5658 5658 5656 5654 5653 5651 5650 5648 5647
5680 5681 5681 5682 5684 5685 5686 5686 5687 5687 5687 5687 5688 5688 5688 5688 5689 5689 5689 5690 5690 5690 5690 5690 5690 5689 5689 5690 5689 5689 5690 5690 5690 5689 5689 5688 5688 5687 5687 5686 5686 5685 5684 5683 5682 5681 5680 5679 5677 5676 5676 5675 5674 5672 5671 5670 5669 5667 5666 5665 5663 5663 5662 5661 5659 5658 5657 5656 5655 5653 5652 5651 5651 5650 5650 5649 5649 5648 5646 5645 5644 5643 5641 5640 5639
5676 5677 5677 5678 5679 5680 5681 5681 5682 5682 5682 5682 5683 5683 5683 5683 5684 5684 5684 5684 5685 5685 5684 5684 5684 5684 5684 5684 5683 5683 5683 5684 5683 5683 5682 5681 5680 5680 5679 5679 5678 5677 5676 5675 5674 5672 5671 5670 5668 5667 5666 5665 5664 5663 5662 5660 5659 5657 5656 5655 5653 5652 5652 5650 5648 5648 5648 5647 5645 5643 5642 5640 5639 5639 5640 5639 5638 5637 5636 5635 5635 5634 5632 5632 5631
5672 5672 5673 5674 5674 5675 5676 5676 5677 5677 5678 5678 5678 5678 5679 5679 5679 5679 5680 5680 5679 5679 5679 5679 5678 5678 5678 5677 5677 5677 5677 5677 5676 5676 5675 5674 5673 5672 5671 5671 5670 5669 5668 5666 5665 5663 5662 5661 5659 5658 5656 5655 5654 5653 5652 5650 5648 5647 5645 5644 5643 5642 5641 5640 5638 5637 5636 5635 5634 5633 5631 5629 5628 5627 5628 5628 5627 5626 5624 5622 5623 5622 5621 5621 5621
5668 5668 5669 5669 5670 5671 5671 5672 5672 5673 5673 5674 5674 5674 5674 5675 5675 5675 5675 5675 5674 5674 5674 5673 5673 5672 5672 5671 5671 5671 5670 5670 5669 5669 5668 5667 5666 5665 5663 5663 5662 5661 5659 5658 5656 5654 5652 5651 5650 5648 5647 5645 5644 5643 5642 5641 5639 5637 5635 5634 5633 5632 5631 5629 5628 5626 5625 5623 5623 5622 5620 5619 5617 5616 5615 5615 5615 5615 5613 5612 5611 5611 5610 5610 5610
5664 5664 5665 5666 5666 5667 5667 5668 5668 5669 5669 5669 5670 5670 5670 5670 5670 5670 5670 5670 5669 5669 5668 5668 5667 5666 5666 5665 5665 5664 5663 5663 5662 5661 5660 5659 5658 5656 5655 5654 5653 5652 5650 5648 5647 5645 5643 5642 5641 5639 5637 5636 5634 5634 5633 5631 5629 5627 5626 5624 5623 5622 5620 5619 5618 5617 5615 5613 5612 5611 5610 5608 5607 5606 5605 5604 5604 5603 5602 5601 5600 5600 5600 5600 5600
5660 5660 5661 5662 5662 5663 5663 5664 5664 5664 5664 5664 5665 5665 5665 5664 5664 5664 5664 5664 5663 5663 5662 5662 5661 5660 5660 5659 5658 5657 5656 5656 5655 5654 5652 5651 5650 5648 5647 5646 5645 5643 5641 5640 5638 5636 5635 5634 5632 5630 5628 5627 5625 5625 5624 5622 5619 5618 5617 5615 5613 5611 5610 5609 5608 5606 5605 5603 5602 5601 5600 5598 5597 5597 5595 5594 5594 5593 5592 5590 5590 5590 5590 5590 5590
5655 5656 5657 5657 5658 5658 5658 5659 5659 5659 5659 5659 5659 5659 5659 5659 5658 5658 5658 5658 5657 5657 5656 5656 5655 5654 5653 5652 5651 5650 5649 5648 5647 5645 5644 5643 5641 5640 5639 5637 5636 5635 5633 5631 5630 5628 5627 5625 5624 5621 5620 5618 5617 5616 5615 5614 5611 5609 5608 5606 5604 5601 5601 5600 5597 5595 5594 5593 5592 5591 5590 5589 5588 5587 5586 5585 5584 5583 5583 5582 5582 5582 5582 5582 5582
5651 5651 5651 5652 5652 5653 5653 5653 5653 5653 5653 5653 5653 5653 5653 5653 5653 5652 5652 5652 5651 5651 5650 5649 5648 5647 5646 5645 5644 5642 5641 5640 5639 5637 5636 5635 5634 5632 5631 5629 5628 5627 5625 5624 5622 5621 5619 5617 5616 5614 5612 5610 5609 5608 5606 5605 5603 5601 5599 5597 5595 5592 5591 5590 5588 5586 5585 5584 5582 5582 5581 5580 5579 5578 5577 5577 5576 5576 5576 5576 5576 5576 5576 5576 5576
5645 5646 5646 5646 5647 5647 5647 5647 5647 5647 5647 5647 5647 5647 5646 5646 5647 5646 5646 5646 5645 5645 5644 5643 5642 5641 5639 5638 5637 5636 5635 5633 5632 5631 5630 5629 5627 5626 5625 5623 5622 5620 5619 5617 5615 5614 5612 5611 5609 5607 5605 5604 5602 5600 5599 5597 5595 5593 5591 5589 5586 5584 5582 5581 5579 5577 5576 5575 5574 5573 5572 5571 5570 5570 5570 5570 5570 5570 5570 5570 5570 5570 5570 5570 5571
5639 5640 5640 5641 5641 5641 5641 5641 5641 5641 5641 5641 5641 5640 5640 5640 5640 5640 5640 5640 5639 5639 5638 5637 5637 5636 5634 5632 5631 5630 5629 5628 5626 5625 5624 5623 5621 5620 5619 5617 5616 5614 5613 5611 5609 5607 5606 5605 5603 5601 5600 5598 5595 5593 5592 5590 5587 5585 5582 5580 5577 5575 5573 5571 5569 5568 5567 5566 5565 5564 5564 5563 5563 5563 5564 5564 5565 5565 5565 5565 5565 5565 5565 5565 5565
5633 5633 5634 5634 5634 5635 5635 5635 5635 5635 5635 5635 5634 5634 5634 5634 5634 5634 5634 5633 5633 5632 5632 5631 5630 5630 5629 5627 5625 5624 5623 5622 5621 5620 5618 5617 5616 5615 5613 5612 5610 5608 5607 5605 5603 5602 5600 5599 5597 5596 5594 5592 5589 5587 5585 5582 5580 5577 5574 5571 5568 5565 5563 5561 5560 5559 5558 5557 5557 5557 5557 5557 5557 5558 5559 5559 5559 5560 5560 5559 5559 5559 5559 5559 5559
5627 5628 5628 5628 5629 5629 5629 5630 5630 5629 5629 5629 5629 5629 5629 5628 5628 5628 5628 5628 5627 5626 5626 5625 5624 5623 5622 5621 5620 5618 5617 5616 5615 5614 5613 5611 5610 5609 5608 5606 5604 5603 5601 5600 5598 5597 5595 5593 5592 5590 5588 5586 5583 5581 5578 5575 5572 5569 5566 5562 5559 5556 5554 5553 5552 5551 5551 5551 5551 5551 5552 5552 5553 5554 5555 5555 5555 5555 5555 5554 5554 5555 5554 5554 5555
5622 5622 5623 5623 5624 5624 5624 5624 5624 5624 5624 5624 5623 5623 5623 5623 5622 5622 5622 5622 5621 5621 5620 5619 5618 5617 5616 5615 5614 5613 5611 5610 5609 5608 5607 5606 5605 5604 5602 5601 5599 5598 5596 5595 5593 5592 5590 5589 5587 5585 5583 5580 5578 5575 5572 5569 5565 5561 5558 5555 5552 5550 5548 5547 5547 5546 5547 5547 5548 5548 5549 5550 5550 5551 5551 5551 5551 5551 5551 5550 5551 5550 5550 5550 5550
5617 5617 5618 5618 5619 5619 5619 5619 5619 5619 5619 5618 5618 5617 5617 5617 5617 5617 5616 5616 5615 5615 5614 5613 5612 5611 5610 5610 5609 5607 5606 5605 5604 5604 5603 5601 5600 5599 5598 5597 5595 5594 5592 5590 5589 5587 5586 5584 5582 5580 5577 5575 5572 5569 5566 5563 5559 5555 5553 5550 5548 5546 5545 5544 5544 5544 5545 5545 5545 5546 5547 5547 5547 5548 5548 5548 5548 5547 5547 5547 5547 5546 5546 5545 5545
5612 5612 5613 5613 5613 5614 5614 5614 5614 5614 5613 5613 5612 5612 5611 5611 5611 5611 5611 5610 5610 5609 5608 5607 5607 5606 5606 5605 5604 5603 5602 5601 5601 5600 5599 5598 5596 5595 5594 5593 5591 5590 5588 5586 5585 5583 5581 5579 5577 5575 5572 5570 5567 5564 5561 5558 5555 5552 5550 5548 5546 5544 5542 5541 5541 5542 5543 5543 5543 5543 5543 5543 5544 5544 5544 5544 5544 5544 5544 5543 5543 5542 5542 5542 5542
5607 5607 5607 5608 5608 5609 5609 5609 5608 5608 5608 5608 5608 5607 5606 5606 5606 5606 5606 5605 5605 5604 5604 5603 5602 5602 5602 5601 5600 5600 5599 5598 5597 5596 5595 5594 5593 5592 5591 5589 5588 5586 5584 5583 5581 5579 5577 5575 5573 5571 5568 5565 5562 5559 5556 5554 5552 5550 5548 5546 5544 5542 5540 5538 5538 5539 5540 5540 5540 5540 5540 5540 5541 5541 5541 5541 5541 5541 5540 5540 5539 5539 5539 5538 5538
5602 5602 5602 5603 5603 5603 5604 5604 5603 5603 5603 5603 5603 5602 5601 5601 5601 5601 5601 5601 5600 5600 5600 5599 5599 5598 5598 5598 5597 5597 5596 5595 5594 5593 5592 5591 5590 5589 5587 5586 5584 5583 5581 5579 5577 5575 5573 5571 5569 5567 5564 5562 5559 5556 5553 5551 5549 5547 5546 5545 5543 5541 5539 5538 5537 5538 5538 5538 5538 5538 5538 5538 5538 5538 5539 5538 5538 5537 5537 5537 5536 5536 5536 5536 5535
5597 5597 5597 5598 5598 5598 5599 5599 5599 5599 5599 5599 5598 5598 5597 5597 5597 5597 5597 5597 5597 5597 5596 5596 5596 5595 5595 5595 5594 5594 5593 5592 5592 5591 5590 5589 5587 5586 5584 5583 5581 5579 5577 5575 5573 5572 5570 5567 5565 5563 5561 5558 5556 5553 5551 5548 5547 5545 5544 5543 5542 5541 5539 5538 5537 5537 5536 5536 5536 5535 5535 5536 5536 5536 5536 5536 5535 5535 5534 5534 5534 5533 5533 5532 5532
5592 5592 5592 5593 5593 5593 5594 5594 5594 5594 5594 5594 5594 5594 5593 5593 5593 5594 5594 5594 5594 5593 5593 5593 5593 5592 5592 5592 5591 5591 5590 5590 5589 5588 5587 5586 5584 5583 5581 5580 5578 5576 5574 5572 5570 5567 5565 5563 5562 5560 5557 5555 5553 5550 5548 5546 5544 5543 5542 5541 5540 5539 5538 5537 5537 5536 5535 5535 5534 5534 5533 5533 5533 5533 5533 5533 5532 5532 5531 5531 5531 5530 5529 5529 5528
5587 5587 5587 5588 5588 5589 5589 5589 5589 5590 5590 5590 5590 5590 5590 5590 5590 5590 5590 5590 5590 5590 5590 5590 5590 5589 5589 5589 5588 5588 5587 5587 5586 5585 5584 5583 5581 5580 5578 5576 5575 5572 5570 5568 5566 5563 5561 5560 5558 5556 5555 5552 5550 5548 5546 5543 5542 5541 5540 5539 5538 5537 5537 5536 5535 5535 5534 5533 5533 5532 5532 5532 5531 5531 5530 5530 5529 5529 5528 5527 5526 5526 5525 5524 5524
5582 5582 5583 5583 5583 5584 5584 5585 5585 5585 5585 5586 5586 5586 5586 5586 5586 5587 5587 5587 5587 5587 5587 5587 5587 5587 5586 5586 5586 5585 5585 5584 5583 5582 5581 5580 5578 5577 5575 5574 5572 5569 5567 5564 5562 5560 5558 5556 5555 5554 5552 5550 5548 5546 5544 5542 5540 5538 5537 5536 5536 5535 5534 5534 5533 5533 5532 5531 5531 5530 5530 5529 5529 5528 5527 5526 5526 5525 5524 5523 5522 5521 5520 5519 5518
5578 5578 5578 5579 5579 5579 5580 5580 5581 5581 5581 5582 5582 5582 5583 5583 5583 5584 5584 5584 5584 5584 5584 5584 5584 5584 5584 5583 5583 5582 5582 5581 5580 5579 5578 5577 5576 5574 5573 5571 5569 5566 5564 5561 5559 5557 5555 5554 5552 5551 5549 5548 5546 5544 5542 5540 5538 5537 5536 5535 5534 5533 5532 5531 5530 5530 5529 5529 5528 5527 5527 5526 5526 5525 5524 5523 5522 5521 5520 5519 5518 5517 5516 5515 5514
5573 5573 5574 5574 5574 5575 5575 5576 5576 5577 5577 5578 5578 5578 5579 5579 5580 5580 5581 5581 5581 5581 5581 5581 5581 5581 5581 5581 5580 5580 5579 5578 5578 5577 5575 5574 5573 5572 5570 5568 5566 5563 5561 5558 5556 5554 5553 5551 5550 5549 5547 5546 5544 5542 5540 5539 5537 5535 5534 5533 5532 5531 5530 5529 5528 5528 5527 5526 5526 5525 5524 5523 5523 5522 5522 5521 5520 5520 5519 5518 5517 5516 5515 5514 5513
5569 5569 5569 5570 5570 5570 5571 5572 5572 5573 5573 5574 5574 5575 5575 5576 5576 5577 5577 5578 5578 5578 5579 5579 5579 5578 5578 5578 5578 5577 5577 5576 5575 5574 5573 5572 5570 5569 5567 5565 5563 5561 5558 5556 5554 5552 5550 5549 5548 5547 5545 5544 5543 5541 5539 5538 5536 5535 5533 5532 5531 5530 5529 5528 5527 5526 5525 5525 5524 5524 5523 5522 5522 5521 5521 5520 5520 5519 5518 5517 5516 5515 5514 5513 5512